Total_Precipitation_Accumulation
0.43 0.33 0.41 0.39 0.36 0.45 0.49 0.62 0.69 0.66 0.57 0.52 0.52 0.56 0.57 0.56 0.56 0.55 0.58 0.73 0.86 1.00 1.15 1.39 1.52 1.67 1.65 1.71 1.80 1.83 1.93 1.92 2.03 2.28 2.55 2.67 2.69 2.53 2.50 2.77 2.81 2.52 2.49
0.33 0.31 0.34 0.30 0.31 0.41 0.50 0.64 0.64 0.64 0.61 0.57 0.52 0.58 0.63 0.63 0.59 0.57 0.64 0.88 1.05 1.16 1.24 1.38 1.50 1.53 1.55 1.63 1.79 1.89 1.99 1.92 2.04 2.47 2.81 2.88 3.00 2.83 2.71 2.72 2.77 2.83 2.60
0.42 0.42 0.29 0.31 0.34 0.41 0.52 0.61 0.66 0.63 0.60 0.56 0.53 0.54 0.59 0.61 0.66 0.69 0.76 1.08 1.25 1.41 1.45 1.47 1.59 1.63 1.56 1.63 1.78 1.89 1.91 1.96 2.32 2.82 3.28 3.01 2.85 2.86 2.78 2.77 2.54 2.37 2.27
0.39 0.40 0.28 0.33 0.42 0.45 0.51 0.58 0.70 0.66 0.62 0.58 0.55 0.54 0.59 0.65 0.72 0.82 0.95 1.12 1.31 1.49 1.63 1.80 1.99 1.90 1.70 1.63 1.66 1.75 1.94 2.13 2.59 3.09 3.56 3.19 2.92 3.28 3.21 2.85 2.55 2.28 2.18
0.30 0.32 0.38 0.43 0.48 0.53 0.55 0.57 0.65 0.69 0.70 0.70 0.70 0.64 0.67 0.72 0.75 0.80 0.95 1.08 1.19 1.29 1.49 1.67 1.77 1.87 1.70 1.61 1.57 1.70 1.98 2.26 2.74 3.20 3.62 3.43 3.35 3.73 3.39 2.92 2.69 2.33 2.14
0.36 0.30 0.38 0.49 0.52 0.56 0.61 0.61 0.61 0.66 0.76 0.85 0.91 0.87 0.84 0.86 0.88 0.91 1.03 1.06 1.14 1.20 1.29 1.42 1.63 1.80 1.80 1.69 1.60 1.77 2.07 2.36 2.57 2.97 3.64 3.44 3.31 3.52 3.26 3.08 2.83 2.44 2.24
0.56 0.52 0.47 0.52 0.55 0.60 0.66 0.68 0.72 0.73 0.82 0.94 1.02 1.07 1.06 1.02 0.96 1.03 1.16 1.11 1.11 1.18 1.24 1.24 1.31 1.41 1.75 1.85 1.68 1.76 2.20 2.64 2.57 3.18 3.63 3.46 3.50 3.41 3.28 3.27 3.06 2.66 2.36
0.72 0.68 0.68 0.63 0.57 0.65 0.75 0.75 0.81 0.89 0.93 1.03 1.12 1.24 1.20 1.10 1.06 1.12 1.24 1.27 1.27 1.33 1.35 1.21 1.13 1.20 1.48 1.74 1.63 1.72 2.01 2.29 2.24 2.88 3.43 3.28 3.25 3.24 3.25 3.27 2.94 2.64 2.38
0.94 0.92 0.93 0.78 0.72 0.79 0.91 0.90 0.92 0.96 1.03 1.12 1.30 1.42 1.37 1.27 1.25 1.27 1.31 1.38 1.44 1.46 1.46 1.41 1.32 1.29 1.37 1.55 1.61 1.73 2.01 2.34 2.36 2.64 2.84 3.21 3.17 3.52 3.39 3.15 2.85 2.47 2.24
1.30 1.28 1.21 1.20 1.16 1.06 1.10 1.24 1.19 1.17 1.17 1.16 1.26 1.49 1.52 1.43 1.36 1.40 1.35 1.45 1.54 1.59 1.57 1.59 1.64 1.58 1.46 1.43 1.54 1.67 2.03 2.23 2.07 2.38 2.99 2.98 3.04 3.58 3.67 3.17 2.81 2.55 2.35
1.71 1.65 1.44 1.50 1.52 1.38 1.34 1.30 1.46 1.43 1.37 1.31 1.35 1.51 1.58 1.69 1.69 1.64 1.55 1.77 1.78 1.89 1.96 1.91 1.85 1.75 1.68 1.59 1.62 1.74 1.92 1.95 2.19 2.65 2.98 2.82 3.02 3.53 3.83 3.57 3.05 2.77 2.53
1.90 1.82 1.75 1.61 1.54 1.51 1.42 1.52 1.69 1.64 1.64 1.53 1.72 1.70 1.85 2.31 2.48 2.14 2.30 2.42 2.43 2.45 2.43 2.29 2.19 2.08 1.87 1.56 1.66 1.86 1.67 1.85 2.36 2.77 2.67 2.72 3.01 3.51 3.89 3.84 3.49 3.13 2.87
2.24 2.06 2.10 1.96 1.80 1.97 2.06 1.95 1.96 2.02 2.15 2.02 2.18 2.23 2.40 2.65 2.70 2.69 2.80 2.73 2.80 2.82 2.68 2.59 2.37 2.09 1.87 1.73 1.78 1.86 1.65 1.69 2.04 2.29 2.54 2.75 2.97 3.49 3.87 3.79 3.72 3.66 3.43
2.87 2.68 2.55 2.53 2.40 2.51 2.76 2.57 2.27 2.17 2.27 2.34 2.58 2.51 2.81 2.98 3.01 3.01 3.08 2.99 2.99 3.01 3.03 2.80 2.63 2.45 2.28 2.05 1.89 1.89 1.84 1.84 2.05 2.29 2.59 2.68 2.75 3.31 3.81 3.85 3.80 3.80 3.88
3.05 3.18 2.93 2.89 2.83 3.03 3.22 3.08 2.83 2.78 2.56 2.52 2.85 2.91 3.05 3.19 3.21 3.32 3.30 3.28 3.03 2.98 2.96 2.85 2.66 2.72 2.62 2.35 2.05 2.02 2.10 2.07 2.17 2.43 2.52 2.67 2.70 3.07 3.62 3.93 3.95 3.95 4.14
2.92 3.18 3.30 3.31 3.26 3.10 3.21 3.25 3.03 2.78 2.89 2.77 2.80 2.95 3.00 3.17 3.45 3.53 3.51 3.49 3.40 3.27 3.30 3.09 2.89 3.06 2.93 2.79 2.55 2.41 2.31 2.38 2.38 2.47 2.67 2.84 2.76 2.78 3.17 3.58 3.85 4.06 4.34
2.84 2.99 3.13 3.27 3.46 3.30 3.31 3.35 3.17 2.97 2.98 3.05 3.11 3.29 3.17 3.12 3.45 3.59 3.76 3.70 3.70 3.61 3.58 3.48 3.40 3.49 3.18 2.99 2.80 2.65 2.61 2.70 2.67 2.61 2.76 2.93 2.86 2.91 2.95 3.04 3.24 3.51 3.88
2.43 2.74 3.00 3.16 3.38 3.60 3.66 3.78 3.53 3.53 3.57 3.52 3.35 3.33 3.26 3.24 3.46 3.80 3.91 3.95 4.02 3.91 3.97 4.01 3.89 3.75 3.64 3.40 3.16 2.81 2.69 2.86 2.86 2.84 2.86 2.90 3.08 3.01 3.02 2.88 2.90 3.01 3.35
2.14 2.64 3.00 3.35 3.74 3.97 4.15 4.37 4.31 4.37 4.21 4.04 3.95 3.79 3.84 3.97 3.97 4.13 4.21 4.29 4.36 4.40 4.40 4.19 4.35 4.13 4.05 3.88 3.41 3.12 2.84 2.75 2.77 2.69 2.80 2.72 2.85 2.96 3.09 3.02 2.94 2.94 3.17
2.30 2.71 3.11 3.42 4.01 4.52 4.60 4.78 4.88 5.11 5.04 4.89 4.89 4.74 4.51 4.62 4.69 4.81 4.68 4.72 4.79 4.87 4.74 4.71 4.80 4.58 4.26 4.20 3.69 3.41 3.15 2.85 2.83 2.80 2.77 2.85 2.77 2.61 2.84 3.02 3.16 2.94 3.14
2.94 3.11 3.37 3.62 3.99 4.27 4.67 5.00 5.22 5.42 5.63 5.71 5.65 5.60 5.57 5.54 5.68 5.73 5.42 5.41 5.33 5.20 4.98 4.94 4.82 4.58 4.30 4.28 4.17 3.72 3.11 2.73 2.68 2.55 2.56 2.76 2.75 2.65 2.74 2.91 2.99 2.88 2.75
3.33 3.42 3.66 4.02 4.33 4.52 4.92 5.46 5.94 6.14 6.25 6.26 6.26 6.37 6.39 6.36 6.52 6.57 6.52 6.24 6.03 5.75 5.26 4.92 4.79 4.53 4.13 4.26 4.33 4.31 3.60 3.11 2.59 2.13 2.22 2.27 2.34 2.60 2.57 2.55 2.73 2.86 2.72
3.32 3.45 3.63 4.16 4.64 5.12 5.58 6.15 6.64 6.95 6.96 6.80 6.48 6.56 6.68 6.51 6.57 6.75 6.73 6.49 6.12 5.55 4.99 4.86 4.84 4.67 4.38 4.30 4.24 4.49 3.93 3.36 2.91 2.39 2.08 1.98 2.11 2.27 2.31 2.34 2.39 2.51 2.49
3.18 3.45 3.70 4.13 4.84 5.38 5.69 6.32 6.98 7.23 7.43 7.47 7.26 6.96 6.75 6.50 6.35 6.27 6.11 5.69 5.29 4.93 4.64 4.49 4.57 4.46 4.46 4.25 4.17 3.89 3.63 3.32 3.10 2.71 2.22 1.99 2.05 2.11 2.12 2.07 2.12 2.33 2.43
3.07 3.18 3.41 3.99 4.67 5.41 6.05 6.56 7.17 7.65 7.87 7.79 7.36 6.86 6.32 5.97 5.54 5.11 4.77 4.56 4.48 4.32 4.14 3.99 4.01 3.90 3.73 3.64 3.65 3.61 3.56 3.29 2.97 2.80 2.50 2.28 2.23 2.03 2.01 2.09 2.16 2.30 2.46
2.74 2.98 3.27 3.71 4.45 5.17 5.78 6.36 6.89 7.29 7.39 7.06 6.52 5.98 5.62 5.21 4.68 4.13 3.88 3.75 3.65 3.46 3.24 3.13 3.15 3.16 3.25 3.31 3.40 3.39 3.35 3.28 3.08 3.07 2.87 2.60 2.45 2.28 2.17 2.16 2.18 2.32 2.53